Weather History for Minden, LA

Change the Weather History Date:

Tuesday, September 4, 2012

  Actual Average (KBAD) Record (KBAD)
Temperature  
Mean Temperature 86 °F -  
Max Temperature 96 °F 87 °F 105 °F (2000)
Min Temperature 77 °F 67 °F 64 °F (1997)
Cooling Degree Days 22    
Growing Degree Days 36 (Base 50)    
Moisture  
Dew Point 72 °F    
Average Humidity 64    
Maximum Humidity 89    
Minimum Humidity 39    
Precipitation  
Precipitation 0.00 in - - ()
Sea Level Pressure  
Sea Level Pressure 29.91 in    
Wind  
Wind Speed 4 mph ()    
Max Wind Speed 10 mph    
Max Gust Speed -    
Visibility 9.5 miles    
Events      
Averages and records for this station are not official NWS values.
T = Trace of Precipitation, MM = Missing Value Source: Averaged Metar Reports

Daily Weather History Graph

Daily Weather History Graph

Search for Another Location

Airport:

Trip Planner

Search our weather history database for the weather conditions in past years. The results will help you decide how hot, cold, wet, or windy it might be!

Date:

Astronomy

Sep. 04, 2012 Rise Set
Actual Time 6:50 AM CDT 7:33 PM CDT
Civil Twilight 6:25 AM CDT 7:58 PM CDT
Nautical Twilight 5:55 AM CDT 8:27 PM CDT
Astronomical Twilight 5:25 AM CDT 8:57 PM CDT
Moon 9:45 PM CDT (9/4) 10:39 AM CDT (9/4)
Length of Visible Light 13h 32m
Length of Day
12h 43m
Waning Gibbous, 83% of the Moon is Illuminated
Sep 4
Waning Gibbous
Sep 8
Last Quarter
Sep 15
New
Sep 22
First Quarter
Sep 29
Full

Hourly Weather History & Observations

Time (CDT) Temp. Heat Index Dew Point Humidity Pressure Visibility Wind Dir Wind Speed Gust Speed Precip Events Conditions
12:15 AM 80.6 °F 84.6 °F 71.6 °F 74% 29.93 in 10.0 mi South 3.5 mph - N/A   Clear
12:35 AM 80.6 °F 84.6 °F 71.6 °F 74% 29.93 in 10.0 mi SSW 4.6 mph - N/A   Clear
12:55 AM 80.6 °F 84.6 °F 71.6 °F 74% 29.92 in 10.0 mi SSW 5.8 mph - N/A   Clear
1:15 AM 80.6 °F 84.6 °F 71.6 °F 74% 29.92 in 10.0 mi SSW 4.6 mph - N/A   Clear
1:35 AM 80.6 °F 84.6 °F 71.6 °F 74% 29.92 in 10.0 mi SSW 4.6 mph - N/A   Clear
1:55 AM 80.6 °F 84.6 °F 71.6 °F 74% 29.92 in 10.0 mi SSW 4.6 mph - N/A   Clear
2:15 AM 80.6 °F 84.6 °F 71.6 °F 74% 29.92 in 10.0 mi SSW 5.8 mph - N/A   Clear
2:35 AM 78.8 °F - 71.6 °F 78% 29.92 in 10.0 mi SSW 4.6 mph - N/A   Clear
2:55 AM 78.8 °F - 71.6 °F 78% 29.92 in 10.0 mi SSW 5.8 mph - N/A   Clear
3:15 AM 78.8 °F - 73.4 °F 83% 29.92 in 10.0 mi SSW 5.8 mph - N/A   Clear
3:35 AM 78.8 °F - 73.4 °F 83% 29.92 in 10.0 mi SSW 5.8 mph - N/A   Clear
3:55 AM 78.8 °F - 73.4 °F 83% 29.92 in 10.0 mi SSW 5.8 mph - N/A   Clear
4:15 AM 78.8 °F - 73.4 °F 83% 29.92 in 10.0 mi SSW 3.5 mph - N/A   Clear
4:35 AM 78.8 °F - 73.4 °F 83% 29.92 in 10.0 mi South 4.6 mph - N/A   Clear
4:55 AM 78.8 °F - 73.4 °F 83% 29.93 in 10.0 mi SW 4.6 mph - N/A   Clear
5:15 AM 77.0 °F - 73.4 °F 89% 29.93 in 10.0 mi SSW 4.6 mph - N/A   Clear
5:35 AM 77.0 °F - 73.4 °F 89% 29.93 in 10.0 mi SSW 3.5 mph - N/A   Clear
5:55 AM 77.0 °F - 73.4 °F 89% 29.93 in 7.0 mi SSW 4.6 mph - N/A   Clear
6:15 AM 77.0 °F - 73.4 °F 89% 29.93 in 7.0 mi Calm Calm - N/A   Clear
6:35 AM 77.0 °F - 73.4 °F 89% 29.94 in 7.0 mi Calm Calm - N/A   Clear
6:55 AM 77.0 °F - 73.4 °F 89% 29.94 in 5.0 mi SW 3.5 mph - N/A   Clear
7:15 AM 77.0 °F - 73.4 °F 89% 29.95 in 4.0 mi Calm Calm - N/A   Clear
7:35 AM 77.0 °F - 73.4 °F 89% 29.95 in 5.0 mi Calm Calm - N/A   Clear
7:55 AM 78.8 °F - 75.2 °F 89% 29.95 in 7.0 mi Calm Calm - N/A   Clear
8:15 AM 78.8 °F - 75.2 °F 89% 29.95 in 7.0 mi SSW 3.5 mph - N/A   Clear
8:35 AM 80.6 °F 86.2 °F 75.2 °F 84% 29.95 in 10.0 mi WSW 5.8 mph - N/A   Clear
8:55 AM 82.4 °F 88.2 °F 73.4 °F 74% 29.95 in 10.0 mi WSW 6.9 mph - N/A   Clear
10:15 AM 87.8 °F 95.6 °F 73.4 °F 62% 29.95 in 10.0 mi West 6.9 mph - N/A   Clear
10:35 AM 89.6 °F 98.2 °F 73.4 °F 59% 29.96 in 10.0 mi West 5.8 mph - N/A   Clear
10:55 AM 89.6 °F 98.2 °F 73.4 °F 59% 29.95 in 10.0 mi WSW 5.8 mph - N/A   Clear
11:15 AM 91.4 °F 98.4 °F 71.6 °F 52% 29.95 in 10.0 mi West 6.9 mph - N/A   Clear
11:35 AM 91.4 °F 98.4 °F 71.6 °F 52% 29.95 in 10.0 mi WSW 10.4 mph - N/A   Clear
11:55 AM 91.4 °F 98.4 °F 71.6 °F 52% 29.95 in 10.0 mi WSW 6.9 mph - N/A   Clear
12:15 PM 91.4 °F 98.4 °F 71.6 °F 52% 29.94 in 10.0 mi WSW 8.1 mph - N/A   Clear
12:35 PM 93.2 °F 100.5 °F 71.6 °F 49% 29.94 in 10.0 mi WSW 3.5 mph - N/A   Clear
12:55 PM 93.2 °F 100.5 °F 71.6 °F 49% 29.93 in 10.0 mi West 6.9 mph - N/A   Clear
1:15 PM 95.0 °F 103.2 °F 71.6 °F 47% 29.92 in 10.0 mi SSW 4.6 mph - N/A   Clear
1:35 PM 95.0 °F 103.2 °F 71.6 °F 47% 29.92 in 10.0 mi WSW 8.1 mph - N/A   Clear
1:55 PM 95.0 °F 101.3 °F 69.8 °F 44% 29.91 in 10.0 mi Calm Calm - N/A   Clear
2:15 PM 96.8 °F 101.8 °F 68.0 °F 39% 29.91 in 10.0 mi West 6.9 mph - N/A   Clear
2:35 PM 96.8 °F 105.1 °F 71.6 °F 44% 29.90 in 10.0 mi West 5.8 mph - N/A   Scattered Clouds
2:55 PM 96.8 °F 103.1 °F 69.8 °F 41% 29.90 in 10.0 mi SW 5.8 mph - N/A   Scattered Clouds
3:15 PM 96.8 °F 105.1 °F 71.6 °F 44% 29.89 in 10.0 mi SE 5.8 mph - N/A   Clear
3:35 PM 96.8 °F 105.1 °F 71.6 °F 44% 29.89 in 10.0 mi South 5.8 mph - N/A   Scattered Clouds
3:54 PM 96.8 °F 103.1 °F 69.8 °F 41% 29.88 in 10.0 mi South 5.8 mph - N/A   Scattered Clouds
4:14 PM 96.8 °F 103.1 °F 69.8 °F 41% 29.88 in 10.0 mi South 6.9 mph - N/A   Clear
4:35 PM 96.8 °F 103.1 °F 69.8 °F 41% 29.87 in 10.0 mi South 4.6 mph - N/A   Clear
4:54 PM 96.8 °F 105.1 °F 71.6 °F 44% 29.87 in 10.0 mi South 8.1 mph - N/A   Clear
5:14 PM 96.8 °F 105.1 °F 71.6 °F 44% 29.86 in 10.0 mi South 4.6 mph - N/A   Clear
5:34 PM 95.0 °F 103.2 °F 71.6 °F 47% 29.87 in 10.0 mi South 5.8 mph - N/A   Clear
5:54 PM 95.0 °F 103.2 °F 71.6 °F 47% 29.87 in 10.0 mi South 4.6 mph - N/A   Clear
6:15 PM 93.2 °F 98.8 °F 69.8 °F 46% 29.86 in 10.0 mi South 4.6 mph - N/A   Clear
6:35 PM 93.2 °F 98.8 °F 69.8 °F 46% 29.86 in 10.0 mi SSE 3.5 mph - N/A   Clear
6:55 PM 91.4 °F 96.8 °F 69.8 °F 49% 29.86 in 10.0 mi South 3.5 mph - N/A   Clear
7:15 PM 91.4 °F 96.8 °F 69.8 °F 49% 29.86 in 10.0 mi SSE 3.5 mph - N/A   Clear
7:35 PM 87.8 °F 92.6 °F 69.8 °F 55% 29.86 in 10.0 mi SE 3.5 mph - N/A   Clear
7:55 PM 87.8 °F 92.6 °F 69.8 °F 55% 29.86 in 10.0 mi SE 4.6 mph - N/A   Clear
8:15 PM 87.8 °F 93.8 °F 71.6 °F 58% 29.87 in 10.0 mi SE 3.5 mph - N/A   Clear
8:35 PM 87.8 °F 93.8 °F 71.6 °F 58% 29.87 in 10.0 mi SSE 3.5 mph - N/A   Clear
8:55 PM 86.0 °F 91.8 °F 71.6 °F 62% 29.88 in 10.0 mi SSE 3.5 mph - N/A   Clear
9:15 PM 86.0 °F 90.4 °F 69.8 °F 58% 29.88 in 10.0 mi Calm Calm - N/A   Clear
9:35 PM 84.2 °F 88.4 °F 69.8 °F 62% 29.88 in 10.0 mi SE 4.6 mph - N/A   Clear
9:55 PM 84.2 °F 88.4 °F 69.8 °F 62% 29.88 in 10.0 mi SSE 3.5 mph - N/A   Clear
10:15 PM 84.2 °F 89.6 °F 71.6 °F 66% 29.88 in 10.0 mi SSE 3.5 mph - N/A   Clear
10:55 PM 82.4 °F 87.2 °F 71.6 °F 70% 29.88 in 10.0 mi SSE 3.5 mph - N/A   Clear
11:15 PM 82.4 °F 87.2 °F 71.6 °F 70% 29.88 in 10.0 mi SSE 3.5 mph - N/A   Clear
11:34 PM 82.4 °F 87.2 °F 71.6 °F 70% 29.87 in 10.0 mi South 3.5 mph - N/A   Clear
11:54 PM 80.6 °F 83.9 °F 69.8 °F 70% 29.88 in 10.0 mi Calm Calm - N/A   Clear